Showing default

ZHUHAI-1 03D, 44538

Orbit data source: Space-Track

ZHUHAI-1 03D, 44538 is a payload satellite owned by Zhuhai Orbita (CN) in SSO that was launched on Thu, 19 Sep 2019 UTC via a CHANG ZHENG 11 launch vehicle from the Jiuquan Satellite Launch Center, China (JSC). Payloads include a variety of satellites, spacecraft, and rockets equipped with specific instruments for various scientific and technological missions. These include communications satellites like Starlink; space stations such as the ISS; scientific satellites like the Hubble; Earth observation satellites from companies like Planet Labs, Umbra, and HawkEye 360; GPS; miniature CubeSats for education and research; and military/defense satellites.

Loading next visibility...
ZHUHAI-1 03D details
Identifier
44538, 2019-060E
Orbit
SSO
Last TLE update9 hours ago
Origin
Flag of CNZhuhai Orbita (CN / PRC)
ManufacturerHarbin
MissionOperational Commercial Imaging
Bus & MotorOHS-1, Unknown motor
Mass69 kg wet, 69 kg dry
Launch date (UTC)
2019-09-19 (5 years ago)
Launch vehicle
CHANG ZHENG 11
Launch site
Jiuquan Satellite Launch Center, China (JSC)
Object type
Payload
Rocket body
Debris
Shape & HBRBox, Unknown HBR
Radar Cross Section0.280 m², Medium (>0.1 m² and < 1m²)

Expand to show TLE details & history

TLE from 9 hours ago
0 ZHUHAI-1 03D
1 44538U 19060E   24339.81599833  .00026226  00000-0  10606-2 0  9990
2 44538  97.4808 108.3541 0013779 150.9752 209.2254 15.24613700290262
Epoch: 2024-12-04T19:35Z
Definitive object data (Epoch: 2024-12-04T19:35:02.255Z)
Latitude-0.00007°
Longitude100.48899°
Altitude503.306 km
Speed7.608 km/s
True Right ascension07h 13m 24s
True Declination0° 00' 00"
Sunlit
Object was in full shadow at TLE epoch
Visualization TLE readout
Latitude-55.57232°
Longitude-90.12377°
Altitude512.873 km
Speed7.606 km/s
Apparent Right ascension16h 13m 41s
Apparent Declination-52° 00' 31"
Sunlit
Object is in daylight
Visualization observer readout
Local Sidereal Time02:26:52
Azimuth227.708° WSW
Elevation-68.043°
Doppler factor1
Orbital elements
Apogee altitude498.371 km
Perigee altitude479.446 km
Semi-major axis6,867.046 km
Eccentricity0.0013779
Inclination97.4808°
RAAN108.3541°
Arg. of periapsis150.9752°
True anomaly209.14842°
Mean anomaly209.2254°
Eccentric anomaly209.1869°
Mean motion3.81407 °/min
BSTAR0.0010606
Orbital period94.39 mins
Loading maneuver chart data...
Loading historical data...
Loading historical data...
Loading historical data...
Loading historical data...
Loading historical data...
Loading historical data...
Loading historical data...

ZHUHAI-1 03D Visibility forecast

Observer location: undefined°, undefined

Span
Click to sort rows by Start time (UTC) header in descending order
Start Az.
Max El. time (UTC)
Max El. Az.
Max El.
End time (UTC)
End Az.
5 mins2024-12-05 08:19:27.845Z133.146° SE2024-12-05 08:22:27.845Z58.103° ENE28.725°2024-12-05 08:24:27.845Z14.395° NNE
4 mins2024-12-05 21:22:27.845Z40.597° NE2024-12-05 21:24:27.845Z127.301° SE34.886°2024-12-05 21:26:27.845Z169.775° S
|